QPF
0.00 0.01 0.01 0.02 0.01 0.00 0.00 0.00 0.01 0.03 0.06 0.04 0.02 0.01 0.01 0.00 0.00 0.00 0.00 0.00 0.00 0.00 0.00 0.01 0.01 0.01 0.00 0.01 0.01 0.02 0.02 0.02 0.02 0.02 0.02 0.01 0.01 0.01 0.02 0.02 0.01 0.02 0.02 0.01
0.01 0.01 0.01 0.01 0.01 0.00 0.00 0.00 0.02 0.05 0.05 0.03 0.02 0.02 0.01 0.00 0.00 0.00 0.00 0.00 0.00 0.00 0.00 0.00 0.01 0.02 0.01 0.01 0.01 0.02 0.03 0.02 0.02 0.02 0.01 0.02 0.02 0.03 0.03 0.03 0.02 0.03 0.01 0.01
0.01 0.01 0.01 0.00 0.00 0.00 0.00 0.01 0.05 0.06 0.04 0.03 0.03 0.03 0.02 0.00 0.00 0.00 0.00 0.01 0.00 0.00 0.00 0.01 0.01 0.02 0.03 0.02 0.02 0.02 0.02 0.02 0.03 0.03 0.02 0.02 0.02 0.03 0.03 0.02 0.03 0.03 0.02 0.02
0.00 0.01 0.02 0.01 0.01 0.01 0.02 0.04 0.07 0.09 0.06 0.03 0.03 0.04 0.02 0.00 0.00 0.00 0.00 0.01 0.01 0.01 0.01 0.01 0.01 0.02 0.02 0.02 0.02 0.02 0.02 0.03 0.04 0.03 0.02 0.02 0.02 0.02 0.02 0.03 0.03 0.03 0.03 0.02
0.01 0.01 0.02 0.02 0.02 0.01 0.04 0.06 0.07 0.10 0.07 0.03 0.02 0.03 0.03 0.01 0.00 0.00 0.00 0.01 0.01 0.01 0.00 0.00 0.01 0.01 0.01 0.02 0.02 0.03 0.03 0.04 0.04 0.04 0.03 0.02 0.02 0.02 0.02 0.03 0.03 0.03 0.03 0.03
0.00 0.01 0.02 0.04 0.04 0.03 0.05 0.05 0.04 0.07 0.06 0.03 0.04 0.06 0.05 0.02 0.01 0.01 0.01 0.01 0.01 0.00 0.01 0.00 0.01 0.01 0.01 0.02 0.03 0.03 0.04 0.06 0.06 0.05 0.04 0.03 0.03 0.02 0.02 0.03 0.03 0.04 0.04 0.03
0.00 0.01 0.02 0.02 0.02 0.03 0.03 0.03 0.03 0.04 0.03 0.02 0.02 0.03 0.03 0.01 0.01 0.01 0.01 0.00 0.00 0.00 0.00 0.01 0.01 0.01 0.01 0.02 0.04 0.05 0.06 0.07 0.07 0.07 0.04 0.03 0.03 0.03 0.04 0.04 0.04 0.05 0.05 0.04
0.01 0.01 0.02 0.03 0.02 0.04 0.04 0.02 0.02 0.02 0.01 0.01 0.02 0.02 0.02 0.02 0.01 0.01 0.00 0.00 0.00 0.00 0.00 0.01 0.01 0.01 0.02 0.03 0.04 0.05 0.06 0.07 0.05 0.03 0.02 0.02 0.02 0.02 0.03 0.03 0.03 0.04 0.03 0.03
0.01 0.01 0.01 0.00 0.00 0.01 0.01 0.01 0.01 0.01 0.01 0.01 0.02 0.01 0.02 0.02 0.02 0.01 0.00 0.00 0.00 0.00 0.00 0.01 0.01 0.01 0.02 0.03 0.04 0.04 0.06 0.06 0.03 0.02 0.02 0.02 0.02 0.02 0.03 0.03 0.03 0.03 0.03 0.02
0.00 0.00 0.01 0.01 0.00 0.00 0.00 0.00 0.00 0.00 0.01 0.01 0.01 0.01 0.02 0.03 0.04 0.03 0.02 0.01 0.01 0.01 0.01 0.01 0.01 0.01 0.01 0.02 0.03 0.03 0.04 0.07 0.05 0.03 0.02 0.02 0.02 0.02 0.02 0.03 0.03 0.02 0.02 0.02
0.02 0.01 0.01 0.01 0.01 0.00 0.00 0.00 0.00 0.00 0.01 0.01 0.02 0.02 0.02 0.02 0.03 0.04 0.02 0.01 0.01 0.01 0.01 0.01 0.01 0.01 0.01 0.02 0.02 0.03 0.04 0.07 0.08 0.06 0.03 0.03 0.02 0.02 0.02 0.02 0.02 0.02 0.02 0.02
0.03 0.01 0.01 0.01 0.00 0.00 0.00 0.00 0.00 0.01 0.01 0.01 0.01 0.02 0.02 0.02 0.02 0.02 0.02 0.01 0.01 0.01 0.01 0.01 0.01 0.01 0.01 0.02 0.03 0.03 0.04 0.06 0.06 0.05 0.04 0.04 0.05 0.05 0.04 0.03 0.03 0.04 0.04 0.03
0.02 0.01 0.01 0.00 0.00 0.00 0.00 0.00 0.01 0.01 0.01 0.01 0.01 0.02 0.02 0.02 0.02 0.02 0.02 0.02 0.02 0.02 0.02 0.01 0.01 0.01 0.01 0.02 0.03 0.04 0.05 0.06 0.06 0.07 0.07 0.06 0.06 0.06 0.05 0.04 0.04 0.06 0.06 0.06
0.01 0.01 0.01 0.01 0.01 0.01 0.00 0.01 0.01 0.01 0.01 0.01 0.01 0.01 0.02 0.03 0.04 0.03 0.03 0.03 0.03 0.03 0.02 0.02 0.01 0.01 0.01 0.03 0.04 0.05 0.05 0.05 0.05 0.07 0.08 0.09 0.08 0.07 0.07 0.06 0.05 0.06 0.08 0.09
0.01 0.01 0.01 0.01 0.01 0.01 0.01 0.01 0.01 0.01 0.01 0.01 0.02 0.02 0.03 0.04 0.04 0.03 0.03 0.03 0.04 0.04 0.03 0.03 0.02 0.02 0.02 0.03 0.04 0.06 0.06 0.05 0.05 0.05 0.06 0.07 0.08 0.08 0.07 0.05 0.05 0.05 0.07 0.07
0.01 0.01 0.01 0.01 0.01 0.01 0.01 0.01 0.01 0.01 0.01 0.01 0.02 0.03 0.03 0.04 0.04 0.05 0.05 0.05 0.06 0.06 0.05 0.04 0.03 0.03 0.03 0.03 0.03 0.05 0.05 0.05 0.06 0.05 0.05 0.05 0.04 0.05 0.06 0.04 0.04 0.04 0.03 0.04
0.02 0.02 0.01 0.02 0.01 0.01 0.01 0.01 0.01 0.01 0.02 0.02 0.02 0.03 0.04 0.06 0.08 0.08 0.09 0.11 0.13 0.13 0.09 0.05 0.03 0.03 0.02 0.03 0.03 0.03 0.04 0.05 0.06 0.06 0.05 0.04 0.04 0.04 0.06 0.06 0.05 0.04 0.03 0.04
0.01 0.01 0.02 0.02 0.02 0.02 0.03 0.02 0.02 0.02 0.03 0.02 0.02 0.03 0.04 0.05 0.07 0.07 0.07 0.08 0.08 0.08 0.07 0.06 0.05 0.04 0.04 0.05 0.05 0.04 0.04 0.04 0.04 0.04 0.04 0.05 0.06 0.07 0.07 0.07 0.07 0.06 0.05 0.06
0.01 0.01 0.01 0.01 0.01 0.01 0.02 0.02 0.03 0.03 0.03 0.03 0.03 0.03 0.05 0.05 0.05 0.04 0.04 0.05 0.04 0.04 0.04 0.05 0.05 0.04 0.05 0.05 0.05 0.05 0.05 0.05 0.05 0.04 0.04 0.04 0.05 0.05 0.06 0.07 0.08 0.08 0.06 0.05
0.01 0.01 0.01 0.01 0.01 0.01 0.02 0.02 0.02 0.03 0.03 0.03 0.04 0.05 0.07 0.10 0.09 0.08 0.07 0.07 0.06 0.05 0.06 0.05 0.03 0.03 0.04 0.04 0.04 0.04 0.05 0.06 0.06 0.05 0.04 0.03 0.03 0.04 0.05 0.06 0.05 0.05 0.05 0.04
0.02 0.02 0.03 0.03 0.02 0.02 0.02 0.02 0.02 0.03 0.04 0.05 0.06 0.07 0.07 0.10 0.11 0.09 0.09 0.08 0.07 0.06 0.05 0.05 0.04 0.04 0.04 0.05 0.04 0.05 0.06 0.08 0.07 0.06 0.05 0.04 0.04 0.04 0.03 0.04 0.04 0.04 0.04 0.04
0.04 0.04 0.03 0.03 0.03 0.03 0.03 0.03 0.04 0.05 0.05 0.05 0.06 0.06 0.06 0.07 0.09 0.08 0.07 0.08 0.07 0.06 0.05 0.05 0.05 0.05 0.04 0.04 0.05 0.07 0.07 0.08 0.09 0.08 0.06 0.05 0.06 0.06 0.04 0.04 0.04 0.03 0.03 0.02
0.07 0.06 0.04 0.04 0.04 0.05 0.07 0.07 0.06 0.05 0.07 0.07 0.07 0.06 0.05 0.05 0.07 0.09 0.08 0.07 0.07 0.08 0.07 0.07 0.06 0.04 0.03 0.03 0.04 0.07 0.09 0.11 0.13 0.11 0.08 0.06 0.05 0.05 0.05 0.05 0.04 0.04 0.04 0.04
0.07 0.07 0.07 0.06 0.06 0.07 0.08 0.07 0.08 0.08 0.07 0.07 0.07 0.06 0.05 0.05 0.06 0.08 0.10 0.09 0.08 0.06 0.05 0.06 0.05 0.04 0.03 0.02 0.03 0.05 0.06 0.08 0.12 0.14 0.12 0.08 0.07 0.06 0.05 0.05 0.05 0.05 0.05 0.05
0.05 0.06 0.06 0.06 0.06 0.07 0.07 0.07 0.07 0.08 0.08 0.07 0.09 0.09 0.07 0.06 0.06 0.07 0.08 0.07 0.05 0.04 0.04 0.05 0.07 0.07 0.05 0.04 0.03 0.03 0.04 0.05 0.07 0.10 0.09 0.07 0.06 0.06 0.07 0.08 0.08 0.08 0.07 0.05
0.06 0.06 0.06 0.06 0.06 0.05 0.04 0.05 0.05 0.05 0.04 0.04 0.05 0.05 0.04 0.03 0.03 0.03 0.03 0.04 0.04 0.05 0.04 0.05 0.06 0.07 0.06 0.04 0.04 0.04 0.05 0.05 0.05 0.06 0.08 0.07 0.07 0.06 0.07 0.06 0.05 0.05 0.06 0.05
0.06 0.05 0.05 0.04 0.04 0.04 0.04 0.04 0.04 0.03 0.03 0.03 0.03 0.02 0.02 0.01 0.01 0.01 0.02 0.02 0.02 0.03 0.03 0.03 0.04 0.04 0.04 0.04 0.05 0.05 0.06 0.07 0.07 0.07 0.07 0.07 0.07 0.07 0.06 0.05 0.05 0.04 0.04 0.04
MSLP
1007.32 1007.04 1006.78 1006.57 1006.42 1006.30 1006.18 1006.03 1005.80 1005.47 1005.07 1004.61 1004.14 1003.71 1003.36 1003.14 1003.03 1003.02 1003.09 1003.19 1003.28 1003.34 1003.37 1003.40 1003.46 1003.61 1003.87 1004.30 1004.89 1005.62 1006.43 1007.27 1008.08 1008.78 1009.35 1009.76 1010.03 1010.19 1010.29 1010.37 1010.48 1010.64 1010.87 1011.13
1008.11 1007.77 1007.41 1007.06 1006.75 1006.49 1006.26 1006.05 1005.83 1005.58 1005.31 1005.03 1004.74 1004.48 1004.25 1004.08 1003.95 1003.85 1003.76 1003.65 1003.51 1003.34 1003.15 1002.98 1002.88 1002.90 1003.07 1003.43 1003.98 1004.68 1005.50 1006.36 1007.20 1007.96 1008.59 1009.08 1009.44 1009.67 1009.84 1009.97 1010.10 1010.26 1010.47 1010.70
1008.84 1008.49 1008.09 1007.67 1007.27 1006.91 1006.61 1006.36 1006.14 1005.96 1005.78 1005.62 1005.46 1005.32 1005.17 1005.03 1004.88 1004.70 1004.48 1004.22 1003.90 1003.55 1003.21 1002.90 1002.68 1002.61 1002.71 1003.01 1003.51 1004.18 1004.97 1005.81 1006.65 1007.43 1008.10 1008.63 1009.04 1009.32 1009.53 1009.68 1009.82 1009.97 1010.13 1010.31
1009.45 1009.16 1008.77 1008.34 1007.92 1007.53 1007.19 1006.91 1006.70 1006.54 1006.41 1006.31 1006.23 1006.13 1006.03 1005.89 1005.71 1005.47 1005.18 1004.82 1004.41 1003.98 1003.55 1003.18 1002.92 1002.80 1002.86 1003.12 1003.58 1004.19 1004.93 1005.73 1006.53 1007.27 1007.93 1008.46 1008.87 1009.17 1009.38 1009.53 1009.65 1009.76 1009.87 1009.99
1009.94 1009.73 1009.41 1009.03 1008.63 1008.25 1007.90 1007.62 1007.40 1007.23 1007.11 1007.01 1006.93 1006.84 1006.73 1006.58 1006.38 1006.12 1005.79 1005.41 1004.99 1004.55 1004.14 1003.79 1003.54 1003.44 1003.50 1003.74 1004.16 1004.72 1005.38 1006.09 1006.80 1007.47 1008.06 1008.54 1008.91 1009.18 1009.36 1009.48 1009.56 1009.62 1009.67 1009.72
1010.29 1010.17 1009.95 1009.66 1009.32 1008.98 1008.66 1008.37 1008.13 1007.93 1007.78 1007.65 1007.53 1007.40 1007.26 1007.09 1006.87 1006.61 1006.30 1005.96 1005.59 1005.23 1004.90 1004.64 1004.47 1004.42 1004.52 1004.76 1005.14 1005.62 1006.18 1006.78 1007.37 1007.92 1008.40 1008.78 1009.07 1009.28 1009.41 1009.48 1009.51 1009.53 1009.53 1009.52
1010.49 1010.48 1010.38 1010.18 1009.93 1009.65 1009.36 1009.07 1008.81 1008.58 1008.36 1008.17 1007.99 1007.81 1007.62 1007.43 1007.21 1006.98 1006.72 1006.46 1006.21 1005.97 1005.77 1005.64 1005.58 1005.62 1005.75 1006.00 1006.33 1006.73 1007.17 1007.63 1008.07 1008.47 1008.81 1009.07 1009.26 1009.38 1009.44 1009.46 1009.46 1009.44 1009.41 1009.38
1010.57 1010.66 1010.66 1010.57 1010.41 1010.20 1009.94 1009.67 1009.39 1009.11 1008.84 1008.58 1008.33 1008.10 1007.87 1007.66 1007.46 1007.27 1007.10 1006.95 1006.82 1006.73 1006.68 1006.68 1006.74 1006.86 1007.03 1007.26 1007.54 1007.84 1008.15 1008.45 1008.73 1008.96 1009.14 1009.27 1009.35 1009.39 1009.39 1009.37 1009.34 1009.32 1009.29 1009.27
1010.56 1010.73 1010.82 1010.82 1010.74 1010.60 1010.39 1010.13 1009.84 1009.52 1009.20 1008.88 1008.58 1008.30 1008.06 1007.84 1007.68 1007.55 1007.47 1007.43 1007.44 1007.49 1007.58 1007.69 1007.84 1008.01 1008.20 1008.39 1008.59 1008.78 1008.94 1009.08 1009.19 1009.26 1009.29 1009.29 1009.26 1009.23 1009.19 1009.15 1009.13 1009.12 1009.13 1009.15
1010.51 1010.72 1010.87 1010.95 1010.94 1010.84 1010.67 1010.42 1010.13 1009.80 1009.44 1009.09 1008.76 1008.47 1008.22 1008.04 1007.92 1007.86 1007.87 1007.94 1008.07 1008.22 1008.41 1008.61 1008.80 1008.99 1009.15 1009.29 1009.38 1009.44 1009.46 1009.43 1009.38 1009.29 1009.18 1009.07 1008.97 1008.88 1008.81 1008.79 1008.79 1008.84 1008.91 1009.00
1010.44 1010.67 1010.86 1010.98 1011.01 1010.94 1010.79 1010.56 1010.26 1009.93 1009.57 1009.21 1008.88 1008.60 1008.39 1008.25 1008.19 1008.21 1008.31 1008.47 1008.67 1008.91 1009.15 1009.38 1009.58 1009.74 1009.85 1009.90 1009.88 1009.80 1009.68 1009.50 1009.30 1009.08 1008.86 1008.65 1008.49 1008.36 1008.30 1008.29 1008.35 1008.45 1008.60 1008.77
1010.38 1010.61 1010.80 1010.92 1010.96 1010.91 1010.76 1010.53 1010.24 1009.90 1009.55 1009.22 1008.92 1008.68 1008.52 1008.44 1008.46 1008.56 1008.73 1008.96 1009.22 1009.50 1009.76 1009.98 1010.16 1010.26 1010.29 1010.24 1010.11 1009.91 1009.65 1009.35 1009.02 1008.69 1008.38 1008.11 1007.90 1007.76 1007.70 1007.72 1007.82 1007.99 1008.21 1008.45
1010.33 1010.54 1010.71 1010.82 1010.83 1010.76 1010.60 1010.35 1010.06 1009.73 1009.39 1009.09 1008.83 1008.66 1008.56 1008.57 1008.66 1008.84 1009.08 1009.36 1009.66 1009.95 1010.20 1010.40 1010.53 1010.57 1010.52 1010.38 1010.15 1009.84 1009.48 1009.08 1008.66 1008.25 1007.87 1007.55 1007.30 1007.14 1007.09 1007.13 1007.26 1007.47 1007.74 1008.03
1010.31 1010.48 1010.61 1010.67 1010.64 1010.52 1010.32 1010.05 1009.74 1009.41 1009.09 1008.81 1008.61 1008.50 1008.48 1008.56 1008.73 1008.97 1009.27 1009.59 1009.91 1010.20 1010.44 1010.61 1010.70 1010.68 1010.57 1010.36 1010.06 1009.69 1009.26 1008.79 1008.31 1007.85 1007.42 1007.06 1006.78 1006.60 1006.53 1006.57 1006.70 1006.93 1007.21 1007.52
1010.30 1010.43 1010.51 1010.51 1010.42 1010.24 1009.99 1009.67 1009.33 1008.98 1008.67 1008.42 1008.26 1008.20 1008.24 1008.38 1008.61 1008.91 1009.25 1009.60 1009.93 1010.22 1010.45 1010.60 1010.65 1010.61 1010.47 1010.23 1009.90 1009.50 1009.04 1008.55 1008.04 1007.55 1007.09 1006.70 1006.38 1006.17 1006.06 1006.07 1006.18 1006.37 1006.63 1006.92
1010.30 1010.40 1010.43 1010.37 1010.22 1009.97 1009.65 1009.28 1008.90 1008.53 1008.21 1007.97 1007.83 1007.80 1007.88 1008.06 1008.33 1008.65 1009.01 1009.37 1009.70 1009.99 1010.21 1010.35 1010.40 1010.36 1010.22 1009.99 1009.67 1009.29 1008.85 1008.36 1007.86 1007.36 1006.88 1006.46 1006.10 1005.84 1005.68 1005.63 1005.68 1005.82 1006.03 1006.27
1010.31 1010.39 1010.38 1010.28 1010.07 1009.77 1009.39 1008.97 1008.54 1008.14 1007.80 1007.54 1007.41 1007.38 1007.47 1007.66 1007.93 1008.25 1008.60 1008.94 1009.27 1009.54 1009.75 1009.89 1009.95 1009.93 1009.83 1009.64 1009.38 1009.04 1008.65 1008.20 1007.72 1007.23 1006.75 1006.30 1005.90 1005.58 1005.36 1005.23 1005.21 1005.26 1005.39 1005.56
1010.34 1010.42 1010.40 1010.26 1010.02 1009.67 1009.25 1008.79 1008.33 1007.90 1007.54 1007.26 1007.10 1007.06 1007.12 1007.28 1007.52 1007.80 1008.10 1008.41 1008.69 1008.93 1009.13 1009.27 1009.34 1009.36 1009.30 1009.18 1008.98 1008.72 1008.39 1008.00 1007.57 1007.10 1006.61 1006.14 1005.71 1005.33 1005.03 1004.82 1004.71 1004.69 1004.73 1004.83
1010.38 1010.47 1010.46 1010.32 1010.07 1009.71 1009.27 1008.80 1008.32 1007.87 1007.49 1007.20 1007.01 1006.92 1006.94 1007.04 1007.20 1007.40 1007.63 1007.86 1008.07 1008.26 1008.42 1008.54 1008.62 1008.66 1008.65 1008.59 1008.47 1008.29 1008.03 1007.70 1007.31 1006.87 1006.40 1005.91 1005.44 1005.02 1004.65 1004.37 1004.18 1004.07 1004.04 1004.07
1010.41 1010.53 1010.53 1010.42 1010.18 1009.83 1009.42 1008.95 1008.49 1008.05 1007.66 1007.35 1007.13 1007.00 1006.96 1006.98 1007.04 1007.14 1007.26 1007.38 1007.50 1007.61 1007.70 1007.78 1007.85 1007.90 1007.92 1007.91 1007.85 1007.73 1007.54 1007.27 1006.93 1006.52 1006.05 1005.56 1005.07 1004.60 1004.19 1003.85 1003.59 1003.42 1003.34 1003.32
1010.38 1010.53 1010.56 1010.47 1010.27 1009.97 1009.59 1009.17 1008.74 1008.33 1007.97 1007.66 1007.43 1007.26 1007.16 1007.09 1007.06 1007.05 1007.04 1007.04 1007.03 1007.04 1007.04 1007.06 1007.09 1007.12 1007.15 1007.16 1007.14 1007.07 1006.92 1006.70 1006.40 1006.02 1005.57 1005.08 1004.57 1004.08 1003.64 1003.26 1002.97 1002.77 1002.66 1002.61
1010.25 1010.41 1010.47 1010.41 1010.25 1010.00 1009.68 1009.32 1008.96 1008.60 1008.29 1008.01 1007.78 1007.59 1007.44 1007.31 1007.18 1007.06 1006.93 1006.80 1006.67 1006.56 1006.47 1006.40 1006.37 1006.37 1006.38 1006.39 1006.38 1006.33 1006.22 1006.03 1005.75 1005.40 1004.97 1004.49 1003.99 1003.50 1003.04 1002.66 1002.36 1002.14 1002.03 1001.98
1009.98 1010.13 1010.19 1010.15 1010.02 1009.82 1009.56 1009.28 1008.99 1008.71 1008.46 1008.23 1008.04 1007.85 1007.68 1007.50 1007.30 1007.09 1006.85 1006.61 1006.37 1006.15 1005.96 1005.81 1005.71 1005.66 1005.63 1005.63 1005.62 1005.57 1005.48 1005.31 1005.06 1004.72 1004.32 1003.86 1003.38 1002.90 1002.47 1002.09 1001.80 1001.61 1001.51 1001.49
1009.54 1009.66 1009.69 1009.64 1009.53 1009.36 1009.16 1008.95 1008.74 1008.54 1008.37 1008.21 1008.06 1007.91 1007.74 1007.54 1007.30 1007.03 1006.72 1006.40 1006.07 1005.76 1005.49 1005.27 1005.10 1005.00 1004.94 1004.91 1004.89 1004.85 1004.76 1004.61 1004.38 1004.07 1003.70 1003.27 1002.82 1002.38 1001.98 1001.64 1001.38 1001.22 1001.15 1001.16
1008.96 1009.01 1008.99 1008.91 1008.79 1008.64 1008.48 1008.32 1008.18 1008.06 1007.97 1007.88 1007.79 1007.68 1007.54 1007.34 1007.10 1006.80 1006.46 1006.08 1005.70 1005.34 1005.01 1004.74 1004.54 1004.40 1004.31 1004.27 1004.24 1004.20 1004.12 1003.99 1003.79 1003.52 1003.18 1002.80 1002.40 1002.01 1001.65 1001.35 1001.14 1001.02 1001.00 1001.05
1008.29 1008.24 1008.15 1008.02 1007.87 1007.72 1007.57 1007.46 1007.37 1007.31 1007.28 1007.26 1007.23 1007.17 1007.07 1006.90 1006.67 1006.37 1006.02 1005.63 1005.24 1004.85 1004.51 1004.22 1004.00 1003.85 1003.76 1003.72 1003.70 1003.68 1003.63 1003.53 1003.37 1003.14 1002.85 1002.53 1002.18 1001.84 1001.54 1001.29 1001.13 1001.05 1001.07 1001.16
1007.59 1007.45 1007.29 1007.10 1006.90 1006.73 1006.59 1006.49 1006.44 1006.43 1006.45 1006.48 1006.50 1006.48 1006.41 1006.27 1006.07 1005.79 1005.45 1005.08 1004.69 1004.32 1003.99 1003.72 1003.51 1003.38 1003.32 1003.30 1003.31 1003.33 1003.32 1003.26 1003.15 1002.98 1002.76 1002.49 1002.20 1001.92 1001.67 1001.48 1001.36 1001.32 1001.36 1001.48
Thickness
5803 5813 5818 5817 5820 5827 5823 5820 5812 5812 5815 5820 5829 5832 5836 5841 5843 5840 5837 5835 5833 5830 5828 5826 5823 5819 5817 5814 5812 5809 5803 5800 5796 5794 5791 5788 5784 5781 5779 5775 5773 5769 5766 5764
5787 5801 5808 5807 5815 5820 5822 5822 5818 5815 5812 5828 5833 5832 5828 5830 5832 5828 5825 5825 5826 5824 5821 5819 5816 5814 5812 5809 5808 5805 5799 5796 5794 5791 5787 5783 5780 5778 5774 5772 5770 5766 5763 5760
5769 5789 5793 5787 5805 5811 5814 5821 5817 5806 5811 5822 5820 5817 5814 5818 5820 5818 5819 5818 5817 5817 5815 5813 5812 5810 5807 5805 5803 5799 5795 5792 5788 5786 5782 5780 5777 5773 5770 5767 5765 5762 5760 5757
5762 5766 5750 5784 5816 5816 5811 5811 5815 5813 5813 5813 5812 5813 5814 5817 5812 5810 5810 5810 5810 5809 5809 5810 5810 5807 5804 5801 5798 5794 5790 5786 5783 5781 5778 5776 5772 5768 5766 5763 5760 5757 5755 5753
5751 5747 5755 5780 5798 5803 5795 5790 5806 5804 5803 5805 5805 5801 5798 5806 5807 5804 5803 5802 5803 5803 5803 5803 5802 5801 5797 5794 5791 5787 5784 5780 5779 5776 5773 5770 5767 5764 5762 5759 5756 5753 5751 5749
5743 5734 5734 5763 5791 5805 5793 5770 5792 5794 5789 5791 5792 5777 5778 5795 5798 5796 5795 5794 5793 5795 5795 5792 5792 5792 5788 5784 5781 5778 5776 5775 5773 5770 5768 5765 5762 5760 5758 5755 5752 5749 5747 5745
5731 5730 5740 5763 5783 5787 5756 5754 5776 5780 5778 5778 5774 5773 5778 5786 5786 5786 5785 5784 5784 5783 5782 5781 5782 5781 5777 5774 5771 5771 5770 5768 5766 5763 5761 5760 5758 5755 5752 5749 5746 5743 5739 5738
5724 5720 5726 5758 5762 5753 5749 5762 5766 5766 5769 5767 5768 5770 5770 5772 5772 5772 5773 5773 5773 5771 5770 5771 5772 5768 5766 5763 5763 5763 5761 5759 5757 5755 5754 5754 5750 5748 5745 5742 5738 5735 5732 5731
5723 5723 5735 5746 5745 5749 5753 5751 5753 5755 5757 5758 5756 5756 5757 5757 5758 5759 5760 5760 5761 5760 5758 5759 5760 5758 5754 5755 5755 5753 5751 5750 5749 5748 5747 5746 5742 5739 5737 5734 5730 5728 5725 5724
5718 5723 5730 5734 5737 5740 5742 5741 5743 5744 5746 5746 5743 5744 5744 5744 5744 5746 5746 5748 5749 5747 5746 5746 5748 5748 5746 5747 5746 5744 5742 5741 5740 5738 5737 5737 5734 5733 5729 5727 5724 5721 5719 5717
5703 5710 5715 5718 5723 5726 5728 5730 5731 5732 5733 5732 5731 5730 5730 5730 5731 5732 5733 5736 5737 5735 5734 5735 5737 5737 5738 5738 5737 5734 5732 5732 5730 5730 5729 5726 5726 5725 5723 5722 5719 5715 5713 5712
5690 5700 5702 5703 5712 5716 5714 5714 5716 5716 5717 5719 5720 5719 5719 5719 5720 5721 5721 5724 5724 5724 5724 5725 5726 5726 5727 5727 5726 5723 5721 5720 5720 5720 5719 5717 5715 5714 5713 5712 5710 5707 5705 5703
5692 5696 5696 5699 5702 5704 5703 5704 5706 5705 5705 5705 5708 5709 5708 5708 5709 5710 5712 5712 5712 5713 5714 5715 5716 5716 5717 5717 5716 5714 5712 5710 5710 5710 5709 5707 5706 5705 5702 5700 5699 5697 5695 5693
5685 5683 5681 5686 5689 5693 5693 5694 5695 5695 5696 5696 5696 5698 5697 5697 5697 5697 5699 5701 5703 5704 5704 5704 5705 5705 5707 5706 5705 5704 5703 5702 5701 5701 5700 5699 5697 5696 5695 5692 5689 5687 5685 5683
5672 5674 5674 5677 5680 5681 5682 5682 5681 5681 5683 5684 5685 5685 5685 5684 5684 5686 5688 5691 5692 5692 5692 5693 5693 5694 5696 5695 5694 5693 5693 5694 5693 5692 5692 5691 5690 5689 5686 5685 5682 5680 5679 5676
5664 5666 5667 5667 5667 5668 5669 5669 5668 5669 5671 5672 5672 5673 5674 5675 5675 5676 5677 5678 5678 5678 5680 5681 5681 5683 5684 5685 5684 5683 5684 5684 5683 5683 5684 5683 5682 5680 5678 5677 5675 5673 5672 5670
5652 5651 5652 5654 5655 5657 5658 5659 5659 5660 5661 5661 5662 5663 5664 5665 5665 5664 5664 5666 5666 5666 5668 5669 5669 5672 5673 5674 5674 5674 5675 5675 5674 5675 5675 5674 5673 5673 5672 5670 5668 5666 5665 5664
5648 5647 5648 5647 5647 5648 5648 5650 5651 5651 5651 5653 5654 5654 5654 5653 5652 5652 5653 5654 5655 5655 5656 5657 5659 5661 5662 5663 5663 5665 5666 5667 5667 5667 5666 5666 5665 5664 5664 5662 5661 5659 5658 5656
5641 5641 5641 5642 5642 5641 5641 5641 5643 5644 5645 5645 5644 5644 5644 5644 5644 5643 5644 5644 5644 5644 5646 5648 5647 5650 5652 5653 5653 5655 5656 5657 5658 5658 5657 5656 5655 5656 5655 5654 5652 5651 5651 5648
5633 5634 5634 5634 5635 5635 5634 5635 5635 5635 5636 5636 5635 5635 5634 5635 5635 5636 5635 5634 5635 5636 5637 5638 5639 5641 5643 5644 5643 5646 5647 5648 5648 5648 5648 5648 5647 5646 5646 5645 5644 5643 5641 5640
5625 5625 5625 5626 5626 5627 5627 5627 5627 5627 5628 5628 5627 5626 5625 5626 5627 5627 5627 5626 5627 5628 5628 5628 5630 5631 5633 5633 5633 5637 5638 5638 5638 5638 5638 5638 5637 5636 5635 5635 5635 5633 5633 5631
5617 5617 5617 5617 5617 5617 5619 5620 5620 5620 5620 5620 5621 5620 5619 5618 5619 5619 5619 5618 5619 5618 5620 5621 5621 5620 5622 5623 5626 5628 5628 5629 5628 5628 5629 5629 5628 5627 5626 5626 5625 5625 5624 5623
5609 5609 5609 5608 5609 5609 5611 5612 5612 5613 5614 5614 5614 5613 5612 5612 5613 5612 5612 5612 5613 5610 5612 5612 5610 5610 5611 5615 5616 5618 5618 5619 5618 5619 5619 5620 5619 5618 5618 5617 5617 5617 5616 5615
5602 5601 5602 5603 5603 5603 5602 5605 5606 5608 5609 5609 5609 5608 5607 5607 5607 5608 5607 5605 5604 5603 5604 5602 5601 5601 5602 5606 5607 5608 5609 5609 5609 5609 5610 5610 5610 5610 5609 5608 5607 5607 5606 5605
5597 5597 5597 5597 5597 5597 5598 5600 5601 5602 5603 5604 5604 5603 5603 5603 5602 5602 5602 5601 5598 5597 5597 5595 5593 5593 5595 5598 5599 5600 5600 5600 5600 5600 5600 5599 5599 5600 5600 5599 5598 5597 5596 5594
5594 5594 5594 5594 5594 5595 5596 5597 5597 5597 5597 5597 5598 5598 5598 5597 5597 5596 5595 5594 5593 5591 5590 5590 5589 5588 5590 5592 5592 5592 5592 5592 5591 5590 5590 5590 5590 5589 5589 5588 5587 5586 5584 5583
5591 5591 5590 5591 5593 5594 5594 5594 5594 5594 5594 5593 5592 5592 5592 5591 5591 5590 5589 5588 5587 5586 5586 5585 5585 5585 5585 5585 5584 5584 5583 5583 5582 5581 5580 5580 5580 5580 5579 5578 5576 5575 5574 5572